Location: Bay Ridge
(40.6340°N, 74.0146°W)
Time: 14:55:14
(UTC+00:00)

SJ 16-02 - Pass Details

Date: 15 November 2019
Orbit: 607 x 616 km, 75.0° (Epoch: 04 December)

Event Time Altitude Azimuth Distance (km) Brightness Sun altitude
Exits shadow 09:30:34 - 184° (S) 2,079 4.0 -25.0°
Reaches altitude 10° 09:30:53 10° 184° (S) 1,955 3.9 -24.9°
Maximum altitude 09:35:10 60° 105° (ESE) 699 1.8 -24.1°
Drops below altitude 10° 09:39:30 10° 25° (NNE) 1,965 4.2 -23.3°
Sets 09:41:45 0° 22° (NNE) 2,873 5.0 -22.9°
